Hourly Data Report for October 22, 2016

All times are specified in Local Standard Time (LST). Add 1 hour to adjust for Daylight Saving Time where and when it is observed.

PENTICTON A
BRITISH COLUMBIA

49°27'45.000" N
119°36'08.000" W
344.40 m
1126146
71889
YYF

Download Data

Hourly Data (October 2016)
Hourly Data Report for October 22, 2016
Temp Definition
°C
Dew Point Temp Definition
°C
Rel Hum Definition
%
Wind Dir Definition
10's deg

Wind Spd Definition
km/h
Visibility Definition
km
Stn Press Definition
kPa
Hmdx Definition


Wind Chill Definition


Weather Definition


TIME
00:00 Legend Double Dagger 9.7 5.9 77 36 2 24.1 97.17     LegendNANA
01:00 Legend Double Dagger 7.5 5.2 85 2 5 24.1 97.21     Mostly Cloudy
02:00 Legend Double Dagger 5.3 4.0 91 32 5 24.1 97.20     LegendNANA
03:00 Legend Double Dagger 6.4 4.1 85 31 4 24.1 97.25     LegendNANA
04:00 Legend Double Dagger 4.6 3.3 91 1 4 24.1 97.31     Mostly Cloudy
05:00 Legend Double Dagger 5.9 3.9 87 0 1 24.1 97.36     LegendNANA
06:00 Legend Double Dagger 3.8 2.5 91 36 3 24.1 97.39     LegendNANA
07:00 Legend Double Dagger 4.0 3.0 93 3 5 24.1 97.44     Mainly Clear
08:00 Legend Double Dagger 5.2 4.0 92 34 6 24.1 97.51     LegendNANA
09:00 Legend Double Dagger 9.0 5.2 77 34 9 24.1 97.53     LegendNANA
10:00 Legend Double Dagger 10.1 5.9 75 20 7 24.1 97.51     Mainly Clear
11:00 Legend Double Dagger 12.6 6.0 64 15 14 24.1 97.50     LegendNANA
12:00 Legend Double Dagger 13.2 6.4 63 17 17 24.1 97.47     LegendNANA
13:00 Legend Double Dagger 14.4 5.3 54 15 14 24.1 97.40     Mainly Clear
14:00 Legend Double Dagger 13.8 5.0 55 16 18 24.1 97.38     LegendNANA
15:00 Legend Double Dagger 13.3 6.0 61 17 17 24.1 97.37     LegendNANA
16:00 Legend Double Dagger 12.7 5.7 62 17 19 24.1 97.34     Mostly Cloudy
17:00 Legend Double Dagger 11.2 5.6 68 19 16 24.1 97.33     LegendNANA
18:00 Legend Double Dagger 11.4 6.0 69 17 7 24.1 97.35     LegendNANA
19:00 Legend Double Dagger 11.1 5.0 66 15 9 24.1 97.36     Mostly Cloudy
20:00 Legend Double Dagger 10.8 4.5 65 11 12 24.1 97.36     LegendNANA
21:00 Legend Double Dagger 10.9 4.2 63 14 14 24.1 97.36     LegendNANA
22:00 Legend Double Dagger 10.5 4.0 64 13 10 24.1 97.38     Mostly Cloudy
23:00 Legend Double Dagger 10.4 4.6 67 13 9 24.1 97.34     LegendNANA

Notes on Data Quality.

Legend

  • E = Estimated
  • M = Missing
  • NA = Not Available
  • ‡ = Partner data that is not subject to review by the National Climate Archives
Date modified: